User: anonymous   Login
Location: Unspecified
(0.0000°N, 0.0000°E)
Time: 01:01:58
(UTC+01:00)
Language:

ARIANE 5 R/B - Orbit

View from above orbital plane
View from above orbital plane
View from above satellite
View from above satellite

Ground track
Ground track

The orbit data is extracted from the following two-line orbital elements,

1 27387U 02009B   18021.31299422 -.00000008  00000-0  12297-4 0  9996
2 27387  98.4937 332.1545 0031783 208.0999 151.8472 14.35945991832844
Epoch (UTC): 21 January 2018 07:30:42
Eccentricity: 0.0031783
inclination: 98.4937°
perigee height: 749 km
apogee height: 794 km
right ascension of ascending node: 332.1545°
argument of perigee: 208.0999°
revolutions per day: 14.35945991
mean anomaly at epoch: 151.8472°
orbit number at epoch: 83284

The dashed part of the orbit path shows where the satellite is in the earth's shadow,  

DLR